Wetbulb
67.84 67.17 63.17 58.36 54.63 57.41 53.19 53.99 58.50 53.29 55.75 64.19 66.21 63.59 62.28 64.66 62.07 60.86 71.27 72.31 72.94 71.84 73.97 75.56 76.35 76.60 76.27 77.00 77.13 77.04 76.59 76.22 76.17 75.87 75.45 75.27 75.39 74.61 74.28 74.20 74.07 73.53 73.45 73.42 73.07 72.90 72.59 72.30 72.11
61.46 60.12 58.35 55.33 53.89 51.08 50.38 53.83 51.10 53.07 55.02 64.29 65.91 66.37 65.17 63.36 69.04 68.22 69.36 72.82 72.92 72.47 73.72 74.43 76.40 76.68 76.25 76.47 76.79 76.79 76.69 76.24 76.22 76.02 75.37 75.27 75.27 75.04 74.28 74.43 74.00 73.11 73.23 73.15 72.87 72.65 72.29 71.88 71.60
61.63 56.69 55.06 54.36 52.18 46.59 47.34 51.58 51.93 52.86 63.00 65.14 65.27 67.88 67.65 67.07 69.00 69.16 71.12 73.66 72.99 72.26 73.49 74.75 76.45 76.50 76.57 75.85 76.54 76.89 76.59 76.37 76.20 75.95 75.29 75.24 75.09 75.20 75.22 74.91 74.26 72.91 72.72 72.28 71.93 71.57 71.24 70.72 70.45
57.23 55.91 53.36 52.45 48.58 50.37 51.18 52.63 52.36 53.23 63.93 65.66 67.35 64.80 69.04 69.75 69.30 70.27 73.19 74.10 72.08 71.88 72.79 75.97 76.64 76.54 76.67 75.77 75.70 76.52 76.37 76.44 75.97 75.95 75.42 75.22 75.19 75.09 75.64 75.25 74.98 73.85 72.96 72.39 71.84 71.42 71.22 70.81 70.82
54.55 53.92 51.12 48.87 48.21 49.63 51.43 52.26 51.34 53.28 62.30 63.95 66.66 65.10 66.33 70.31 72.46 72.88 73.62 73.91 71.96 71.75 72.28 74.84 76.61 76.57 76.47 75.95 75.44 75.75 76.22 76.39 76.04 75.67 75.39 75.19 75.24 75.19 75.17 75.07 74.79 74.27 73.82 73.33 72.93 72.21 71.70 71.68 71.73
53.13 51.92 48.92 46.98 47.23 49.50 51.30 52.02 52.65 57.64 63.97 66.16 65.80 66.50 67.16 71.14 71.88 72.69 73.88 73.95 73.52 71.89 72.44 73.61 76.15 76.27 76.27 76.32 75.84 75.67 75.66 76.08 76.21 75.99 75.84 75.57 75.29 75.27 75.29 75.07 74.92 74.69 74.38 74.18 73.66 73.40 73.17 72.78 72.58
51.34 51.02 47.29 46.42 47.22 48.75 50.28 52.28 54.11 62.27 63.75 64.73 68.88 64.66 66.92 69.75 72.59 73.67 73.87 74.39 74.36 73.11 73.05 73.66 74.26 75.63 76.14 76.21 76.01 75.90 75.53 75.50 75.87 75.90 76.00 75.98 75.52 75.36 75.42 75.54 75.40 75.04 74.77 74.42 74.19 73.65 73.37 72.95 72.88
51.33 51.19 46.30 46.14 47.08 47.87 50.95 51.61 51.64 59.87 63.88 68.49 68.47 63.57 65.44 70.27 72.49 73.69 73.58 73.60 74.01 73.81 73.16 73.24 73.68 73.50 74.28 75.21 75.84 75.78 75.58 75.31 75.35 75.75 75.77 76.02 75.83 75.64 75.62 75.19 75.24 75.72 75.42 74.87 74.70 74.47 73.97 73.87 73.62
50.48 49.22 46.17 45.92 46.52 48.24 51.68 51.17 53.68 54.14 65.45 65.79 66.52 66.28 68.09 71.56 72.77 72.17 71.86 72.06 72.84 73.28 73.63 73.38 72.78 73.15 73.69 74.06 74.89 75.59 74.75 74.65 74.86 74.67 75.13 75.28 74.92 75.29 75.53 75.16 74.57 75.09 74.99 75.09 75.05 75.29 74.84 74.56 74.19
51.19 48.58 46.78 48.03 49.23 50.37 51.27 50.12 52.43 52.00 59.86 63.11 65.83 67.23 69.41 71.42 71.27 70.12 69.73 69.88 71.03 71.99 72.92 73.60 73.38 72.57 72.77 72.94 74.28 74.48 73.87 73.66 73.26 72.80 73.41 73.04 74.20 74.77 74.46 74.88 74.91 74.94 75.07 75.14 75.14 75.24 75.29 74.70 74.01
48.25 47.78 48.37 49.58 50.40 50.45 50.75 51.40 51.80 51.50 53.24 57.39 58.83 66.04 68.76 70.11 70.18 69.22 69.24 69.52 70.22 71.89 72.74 73.63 73.85 74.12 72.66 71.71 73.19 73.95 73.53 73.84 73.89 73.78 73.26 72.92 72.60 73.63 73.62 73.81 73.81 74.45 74.37 74.42 74.30 74.54 74.20 73.70 74.10
47.75 48.47 49.15 51.12 50.67 50.56 50.95 51.23 50.81 51.23 53.49 57.71 64.03 67.58 68.90 69.31 69.45 69.01 68.94 69.43 70.23 71.54 72.74 73.68 73.83 74.17 74.17 72.73 72.69 73.17 73.13 73.67 73.15 73.09 73.46 72.36 71.42 71.91 72.21 72.29 72.63 73.11 73.29 73.29 73.61 73.65 73.45 73.11 73.24
48.42 49.57 49.57 52.49 52.57 51.66 50.37 50.10 50.42 51.31 54.12 61.86 66.72 67.20 68.28 69.31 69.90 70.37 70.45 70.70 70.99 70.76 72.24 73.41 73.86 73.98 74.44 73.79 72.90 72.49 72.49 72.81 73.17 73.19 73.36 72.21 71.01 70.77 71.14 71.39 71.88 71.95 72.40 72.60 72.94 73.58 73.74 72.88 71.85
50.26 50.26 51.95 52.41 52.85 52.18 50.24 51.03 50.12 53.96 58.56 63.77 66.19 66.70 67.90 68.62 69.68 69.93 69.84 69.90 70.48 70.92 71.54 73.03 73.48 74.42 74.20 73.64 73.86 72.60 72.61 72.67 73.09 73.00 72.77 73.02 71.98 71.34 70.34 70.52 70.74 71.49 72.35 73.13 73.44 73.41 73.54 73.07 72.56
51.34 50.04 51.24 51.21 51.82 52.19 51.28 51.23 50.34 54.98 58.05 60.56 63.37 67.31 67.51 68.11 69.18 69.27 70.33 70.51 70.87 70.82 71.28 72.27 73.53 74.01 73.91 73.70 73.96 73.72 72.77 72.44 72.22 72.71 73.45 73.16 72.77 72.20 71.16 70.00 69.81 70.61 72.54 72.91 73.21 73.07 73.10 72.52 72.27
49.38 49.15 47.64 50.66 51.03 51.93 51.92 48.44 52.01 57.38 56.55 56.63 56.83 55.69 66.69 68.44 68.91 70.02 70.54 70.60 71.27 71.09 70.20 71.66 71.79 72.75 73.98 73.81 73.63 73.51 73.54 72.93 72.34 72.60 72.73 72.68 72.52 72.59 71.73 70.07 69.71 70.30 71.28 71.92 71.57 71.99 71.95 71.78 71.86
47.87 44.89 45.70 47.99 50.81 51.51 51.44 49.66 50.89 57.25 56.83 57.57 58.79 58.86 60.73 67.45 68.97 70.23 70.34 70.08 70.06 68.75 69.39 69.77 70.01 71.03 71.97 73.04 73.08 72.99 73.48 72.54 72.34 72.29 72.16 72.41 72.08 71.81 71.85 70.83 71.17 71.94 71.19 71.96 72.11 72.47 72.04 71.87 72.01
43.85 44.47 45.91 46.10 49.62 50.88 49.53 49.76 54.11 56.22 56.43 57.48 59.58 61.66 61.81 60.93 64.33 66.86 69.12 70.01 70.01 69.63 69.57 69.63 69.90 70.37 69.62 70.45 70.68 70.77 71.04 70.96 71.11 71.08 71.27 71.95 71.63 71.40 71.91 71.48 71.83 72.21 71.78 72.25 72.59 72.75 73.12 72.11 72.00
47.32 45.88 45.13 48.49 50.13 48.86 49.59 48.93 53.41 55.48 56.53 56.51 58.55 60.99 62.21 63.03 65.66 66.60 67.32 68.14 68.89 69.26 69.47 69.97 70.95 71.06 70.88 70.05 69.49 69.36 68.87 69.85 70.15 70.52 71.29 71.54 71.47 71.81 72.56 71.83 72.33 72.48 71.72 72.52 73.33 72.91 72.52 71.78 72.22
46.93 45.81 46.77 49.32 49.31 49.61 49.54 48.74 52.02 55.12 54.90 55.84 56.28 56.59 59.53 61.76 63.56 64.82 65.62 65.62 64.27 64.68 65.44 66.56 67.45 69.08 70.79 70.73 71.21 71.11 71.30 72.64 72.39 73.07 73.11 72.72 72.21 72.61 72.45 72.41 72.13 72.87 71.60 71.73 72.38 72.36 71.13 71.13 72.08
47.26 46.69 46.88 46.61 48.42 49.20 48.28 47.34 49.37 53.05 55.28 56.58 56.19 56.19 56.94 58.12 59.95 60.88 61.78 62.54 63.87 63.71 64.35 65.13 66.07 67.76 70.15 71.17 71.56 72.09 73.06 72.63 70.25 69.72 70.14 71.24 70.71 73.40 73.02 72.83 72.80 72.56 71.74 71.37 71.37 71.82 72.18 69.13 71.16
45.75 49.39 48.57 46.87 46.49 43.95 47.86 42.41 46.90 51.08 52.45 53.95 54.01 54.35 54.84 56.12 58.13 59.80 60.89 61.47 62.70 62.36 64.21 65.22 66.04 66.55 67.71 67.53 66.69 65.86 65.35 65.12 66.41 66.36 67.57 67.34 67.60 68.15 70.86 73.66 72.86 73.42 70.99 69.89 70.14 70.85 68.78 66.92 66.33
47.43 49.17 48.38 47.96 46.87 45.57 45.70 43.86 47.45 50.35 50.46 52.26 52.67 53.48 54.07 55.00 56.98 57.93 59.48 60.11 61.00 62.11 62.28 62.95 63.36 63.48 64.38 65.66 65.98 65.42 64.06 64.87 65.26 65.82 65.12 64.57 65.45 66.87 68.27 70.17 68.64 68.26 68.29 68.70 67.40 67.71 66.96 66.81 65.25
50.42 48.78 47.47 46.29 46.30 41.21 45.86 44.79 45.15 48.90 51.07 51.73 52.16 52.66 53.39 53.95 56.32 57.68 58.15 58.73 58.85 60.24 60.69 61.25 61.37 61.61 62.69 62.76 62.23 62.08 61.09 61.04 59.59 60.72 61.37 62.52 65.01 66.46 66.45 67.83 67.94 67.89 67.47 67.29 67.66 68.66 68.41 67.46 66.88
49.90 47.95 42.14 40.01 40.08 39.67 45.37 43.82 46.93 50.65 51.91 52.70 52.06 52.10 52.83 53.67 55.87 56.53 56.27 56.68 57.48 57.96 58.79 59.74 60.56 60.69 61.69 61.32 60.78 60.95 60.84 60.48 58.93 59.74 60.00 61.46 62.91 63.87 64.22 65.47 65.53 65.96 66.84 67.11 67.19 66.71 67.17 66.56 66.16
48.50 48.66 42.54 35.54 37.59 41.04 43.65 42.17 47.68 52.08 53.19 53.30 53.12 53.56 54.25 53.44 55.28 56.14 56.56 56.69 56.80 57.16 58.03 58.07 58.83 59.37 60.55 60.71 60.88 61.29 61.28 60.43 59.98 60.71 61.40 60.80 61.15 62.12 62.98 63.24 64.36 63.56 64.02 66.15 65.90 65.85 66.25 66.70 66.60
47.46 45.42 48.86 43.73 42.39 41.64 44.10 45.12 49.59 51.72 52.05 52.33 52.83 53.36 54.37 54.91 56.24 55.93 55.81 55.89 56.40 57.05 57.56 57.89 57.65 57.62 58.85 59.24 59.43 59.38 59.57 59.71 59.01 59.29 60.36 59.69 60.82 60.70 61.62 62.19 62.70 63.18 62.63 63.15 64.93 64.03 64.44 64.29 64.97
49.70 49.94 44.28 45.37 37.21 36.02 40.28 41.48 45.17 47.84 50.59 52.40 52.59 52.89 54.16 54.66 55.59 55.74 55.28 56.39 57.43 58.15 57.86 57.57 57.63 57.66 57.63 58.01 58.40 57.83 58.02 57.84 57.44 58.01 58.07 58.04 58.70 59.23 60.16 60.82 61.17 61.26 62.16 62.16 62.77 62.68 63.94 64.36 64.96
46.95 46.13 45.46 46.79 44.11 38.97 37.44 41.55 51.04 51.14 52.89 52.56 53.96 54.45 54.39 54.31 54.69 55.59 55.84 57.08 57.67 58.10 57.87 58.09 58.02 57.02 57.22 57.40 57.69 57.65 57.14 56.77 55.94 55.39 56.40 56.27 58.02 57.96 58.27 58.80 58.78 59.23 60.09 62.14 61.81 60.94 60.68 61.57 62.87
46.61 47.64 48.49 43.32 41.09 42.05 40.74 41.73 48.43 51.24 53.00 54.20 54.80 54.96 55.04 55.07 55.05 55.95 56.31 57.16 57.50 56.26 55.59 56.02 56.67 56.46 56.41 56.77 57.81 58.03 57.45 56.42 55.63 54.97 54.22 56.23 55.72 56.45 56.03 56.49 57.34 58.52 59.33 60.91 61.10 59.82 59.73 59.10 59.51
MSLP
1013.81 1013.77 1013.58 1012.90 1012.13 1010.48 1009.89 1009.77 1009.77 1009.19 1009.09 1009.32 1009.39 1009.91 1010.09 1010.34 1010.66 1011.55 1012.22 1012.55 1012.67 1013.25 1014.19 1015.00 1015.42 1015.74 1016.08 1016.24 1016.35 1016.48 1016.67 1016.90 1017.18 1017.53 1017.81 1018.08 1018.26 1018.43 1018.59 1018.79 1018.91 1018.98 1019.11 1019.21 1019.26 1019.39 1019.56 1019.68 1019.70
1013.85 1013.80 1013.15 1012.13 1010.96 1009.69 1009.34 1009.59 1009.18 1009.22 1009.25 1009.35 1009.49 1009.67 1010.03 1010.17 1011.04 1011.77 1012.27 1012.74 1012.73 1013.23 1014.03 1014.67 1015.45 1015.80 1016.13 1016.34 1016.61 1016.86 1016.88 1017.13 1017.35 1017.71 1018.01 1018.24 1018.37 1018.55 1018.71 1018.94 1019.12 1019.27 1019.43 1019.50 1019.62 1019.71 1019.80 1019.95 1020.05
1013.63 1013.48 1012.41 1011.65 1011.11 1010.06 1009.47 1009.16 1009.02 1009.00 1009.11 1009.00 1009.22 1009.69 1010.14 1010.76 1011.38 1011.83 1012.23 1012.65 1012.89 1013.52 1014.08 1014.66 1015.25 1015.63 1016.05 1016.39 1016.47 1016.78 1017.06 1017.29 1017.65 1017.93 1018.22 1018.47 1018.59 1018.74 1018.93 1019.12 1019.30 1019.39 1019.61 1019.74 1019.82 1019.92 1019.95 1020.07 1020.15
1013.24 1013.02 1012.79 1011.58 1010.73 1010.53 1010.06 1009.32 1009.40 1009.19 1009.12 1009.12 1009.07 1009.68 1010.57 1011.47 1011.47 1011.74 1012.41 1012.76 1012.97 1013.25 1013.76 1014.52 1015.15 1015.40 1015.75 1016.12 1016.57 1016.85 1017.12 1017.31 1017.72 1017.91 1018.17 1018.39 1018.62 1018.87 1018.91 1019.13 1019.33 1019.54 1019.72 1019.84 1019.90 1020.04 1020.14 1020.19 1020.23
1013.25 1012.60 1011.73 1011.37 1010.91 1010.63 1010.27 1009.83 1009.68 1009.08 1008.99 1008.97 1009.23 1009.96 1010.90 1011.94 1012.10 1012.20 1012.50 1012.88 1013.06 1013.55 1013.91 1014.44 1014.89 1015.28 1015.64 1016.00 1016.52 1016.95 1017.27 1017.45 1017.66 1017.98 1018.31 1018.52 1018.69 1018.97 1019.07 1019.32 1019.45 1019.50 1019.68 1019.86 1020.03 1020.21 1020.25 1020.27 1020.26
1012.51 1012.51 1011.43 1010.90 1010.80 1010.58 1010.22 1010.00 1009.59 1009.25 1009.02 1009.08 1009.19 1009.99 1011.12 1012.03 1012.28 1012.57 1012.83 1012.97 1013.19 1013.64 1014.03 1014.57 1015.47 1015.63 1015.77 1016.19 1016.45 1016.96 1017.40 1017.70 1017.94 1018.21 1018.46 1018.68 1018.91 1019.10 1019.32 1019.51 1019.60 1019.62 1019.76 1019.84 1019.95 1020.13 1020.23 1020.23 1020.23
1012.23 1011.96 1011.52 1011.30 1010.89 1010.41 1010.29 1010.11 1009.54 1009.35 1009.00 1009.04 1009.33 1009.86 1011.25 1011.80 1012.34 1012.92 1013.15 1013.31 1013.54 1013.96 1014.42 1014.88 1015.26 1015.83 1016.20 1016.54 1016.91 1017.20 1017.38 1017.65 1017.97 1018.34 1018.62 1018.91 1019.07 1019.29 1019.41 1019.62 1019.78 1019.76 1019.82 1019.86 1019.93 1020.00 1020.14 1020.09 1020.09
1012.68 1012.17 1011.81 1011.62 1010.94 1010.51 1010.43 1009.95 1009.71 1009.41 1009.24 1009.48 1009.56 1009.64 1010.45 1011.17 1012.36 1012.94 1013.28 1013.42 1013.67 1014.05 1014.26 1014.79 1015.31 1015.63 1015.87 1016.40 1016.85 1017.11 1017.47 1017.65 1017.89 1018.07 1018.36 1018.76 1019.01 1019.27 1019.43 1019.66 1019.69 1019.79 1019.83 1019.91 1019.99 1019.97 1020.01 1019.94 1019.89
1012.90 1012.12 1011.61 1011.57 1011.30 1010.90 1010.56 1010.06 1009.44 1009.47 1009.24 1009.26 1009.59 1009.88 1010.46 1011.24 1012.13 1012.63 1013.09 1013.40 1013.62 1014.06 1014.45 1014.67 1015.12 1015.47 1015.88 1016.13 1016.74 1017.32 1017.48 1017.79 1017.99 1018.25 1018.51 1018.81 1018.67 1018.92 1019.15 1019.28 1019.63 1019.74 1019.79 1019.84 1019.87 1019.87 1019.86 1019.78 1019.75
1012.42 1012.09 1011.85 1012.11 1011.60 1011.15 1010.75 1010.55 1009.80 1009.30 1009.04 1009.01 1009.63 1010.46 1011.02 1011.60 1011.92 1012.03 1012.39 1012.67 1013.14 1013.60 1014.24 1014.77 1014.94 1015.29 1015.64 1015.96 1016.31 1016.83 1017.08 1017.43 1017.68 1017.99 1018.25 1018.28 1018.49 1018.73 1018.92 1019.26 1019.67 1019.81 1019.76 1019.72 1019.73 1019.79 1019.81 1019.73 1018.94
1012.64 1012.12 1012.21 1011.81 1011.65 1011.57 1010.96 1010.45 1010.15 1009.39 1008.88 1008.86 1009.22 1010.03 1010.93 1011.42 1011.58 1011.63 1011.82 1012.05 1012.52 1013.37 1014.16 1014.61 1015.03 1015.31 1015.35 1015.61 1016.19 1016.60 1016.93 1017.30 1017.62 1017.87 1018.11 1018.28 1018.36 1018.67 1018.79 1018.93 1019.08 1019.19 1019.47 1019.14 1019.16 1019.18 1019.16 1019.11 1019.08
1012.38 1012.49 1012.19 1011.59 1011.48 1011.55 1011.05 1010.66 1010.04 1009.72 1008.85 1009.40 1009.49 1009.81 1010.69 1011.09 1011.16 1011.14 1011.48 1012.06 1012.81 1013.42 1013.84 1014.05 1014.62 1015.21 1015.49 1015.66 1016.04 1016.23 1016.61 1017.06 1017.36 1017.63 1018.01 1018.19 1018.24 1018.48 1018.61 1018.56 1018.72 1019.06 1018.84 1019.00 1019.05 1018.78 1019.05 1019.22 1019.14
1012.44 1012.25 1012.08 1011.54 1011.34 1011.21 1011.17 1010.59 1010.23 1009.80 1009.53 1009.75 1009.75 1010.26 1010.51 1010.78 1010.96 1011.29 1011.67 1012.22 1012.73 1013.00 1013.31 1013.97 1014.60 1015.10 1015.41 1015.79 1015.64 1015.94 1016.07 1016.38 1016.59 1017.15 1017.55 1017.75 1017.84 1018.09 1018.37 1018.49 1018.63 1018.63 1018.67 1018.72 1018.59 1018.60 1018.75 1018.73 1018.69
1012.42 1012.23 1011.87 1011.44 1011.15 1010.90 1010.86 1010.63 1010.60 1010.39 1010.42 1010.10 1010.40 1010.47 1010.61 1010.56 1010.55 1011.14 1011.44 1011.73 1012.20 1012.48 1013.01 1013.76 1014.36 1014.93 1015.33 1015.70 1015.74 1015.76 1015.92 1016.00 1016.39 1016.70 1017.01 1017.48 1017.54 1017.77 1018.08 1018.26 1018.44 1018.50 1018.52 1018.38 1018.37 1018.45 1018.65 1018.44 1018.53
1012.45 1012.05 1011.58 1011.45 1011.24 1010.86 1010.90 1010.74 1011.27 1011.73 1011.22 1010.90 1010.78 1010.76 1010.77 1010.77 1011.08 1010.55 1010.46 1011.34 1012.30 1013.18 1013.71 1014.02 1014.43 1014.75 1015.23 1015.56 1015.70 1015.82 1015.70 1015.83 1016.21 1016.51 1017.05 1017.45 1017.73 1017.82 1017.87 1017.91 1018.11 1018.19 1018.44 1018.50 1018.64 1018.47 1018.53 1018.49 1018.25
1012.37 1012.27 1011.45 1011.53 1011.43 1011.01 1010.94 1011.16 1012.05 1012.38 1012.03 1011.86 1011.60 1011.12 1010.59 1010.49 1010.64 1010.93 1011.83 1012.78 1013.09 1013.49 1014.02 1014.39 1014.65 1014.96 1015.45 1015.63 1015.86 1015.96 1016.20 1016.35 1016.52 1016.78 1017.08 1017.52 1017.59 1017.80 1018.07 1017.84 1017.85 1017.99 1018.34 1018.26 1018.15 1018.00 1017.88 1017.82 1017.70
1012.49 1012.09 1012.00 1011.67 1011.69 1011.33 1011.09 1011.16 1012.48 1013.09 1013.18 1012.94 1012.46 1011.84 1011.09 1010.88 1011.39 1012.05 1012.49 1012.93 1013.42 1013.80 1013.91 1014.26 1014.67 1014.89 1015.32 1015.70 1015.97 1016.11 1016.41 1016.59 1016.73 1017.07 1017.03 1017.18 1017.29 1017.28 1017.61 1017.47 1017.60 1017.72 1017.69 1017.66 1017.74 1017.72 1017.61 1017.09 1016.84
1012.34 1012.37 1012.34 1011.92 1011.72 1011.38 1011.31 1011.71 1012.74 1013.59 1013.97 1013.94 1013.66 1013.02 1012.33 1012.25 1012.71 1012.98 1013.08 1013.39 1013.67 1013.97 1014.10 1014.10 1014.41 1014.69 1014.97 1015.39 1015.72 1016.03 1016.39 1016.46 1016.48 1016.62 1016.61 1016.93 1017.02 1017.26 1017.36 1017.37 1017.26 1017.40 1017.33 1017.32 1017.41 1017.48 1016.96 1016.59 1016.36
1012.69 1012.68 1012.37 1011.83 1011.80 1011.69 1011.41 1012.08 1013.22 1014.02 1014.43 1014.61 1014.59 1014.51 1014.06 1013.79 1013.90 1013.92 1013.96 1014.15 1014.30 1014.30 1014.29 1014.32 1014.29 1014.40 1014.48 1014.87 1015.18 1015.50 1015.65 1015.94 1016.03 1016.26 1016.20 1016.18 1016.57 1016.90 1016.86 1016.64 1016.71 1016.65 1016.77 1016.93 1016.88 1016.73 1016.43 1016.01 1016.32
1012.67 1012.52 1012.10 1011.67 1011.71 1011.66 1011.40 1012.07 1013.40 1014.19 1015.08 1015.79 1016.11 1016.14 1015.69 1015.25 1014.96 1014.99 1015.00 1015.11 1015.10 1015.17 1015.19 1015.17 1014.96 1014.65 1014.42 1014.57 1014.95 1015.34 1015.53 1015.72 1015.67 1015.78 1016.28 1016.50 1016.59 1016.47 1016.43 1016.28 1016.27 1016.20 1016.34 1016.53 1016.44 1016.26 1015.71 1015.75 1015.89
1012.29 1012.15 1011.87 1011.74 1011.62 1011.61 1011.58 1011.94 1013.07 1014.34 1015.30 1016.19 1016.96 1017.13 1016.99 1016.71 1016.24 1016.15 1015.99 1015.92 1015.87 1015.63 1015.67 1015.59 1015.63 1014.90 1014.69 1014.41 1014.42 1014.98 1015.75 1016.38 1016.74 1017.00 1017.21 1017.31 1017.41 1016.74 1016.61 1016.08 1015.96 1016.12 1016.22 1015.75 1015.80 1015.75 1015.64 1015.30 1015.45
1011.60 1011.56 1011.68 1011.78 1011.76 1011.33 1011.81 1011.31 1012.56 1013.88 1015.02 1016.18 1017.28 1017.72 1017.86 1017.73 1017.44 1017.05 1016.73 1016.48 1016.40 1016.46 1016.38 1016.15 1015.94 1015.60 1015.43 1015.42 1014.58 1014.22 1016.20 1017.32 1017.76 1017.77 1017.71 1017.86 1017.70 1018.13 1016.05 1015.78 1015.95 1015.59 1016.19 1016.54 1016.73 1016.97 1016.16 1016.35 1015.61
1010.93 1011.39 1011.62 1011.64 1011.64 1011.75 1011.73 1011.97 1011.81 1013.70 1014.70 1016.01 1017.39 1018.05 1018.33 1018.33 1018.04 1017.79 1017.57 1017.24 1017.17 1017.10 1016.89 1016.56 1016.38 1015.99 1015.65 1015.06 1014.53 1015.81 1016.66 1016.63 1017.61 1017.43 1018.12 1017.65 1016.93 1017.94 1017.01 1016.78 1017.04 1015.63 1015.81 1016.41 1016.56 1016.96 1016.52 1016.42 1016.07
1010.92 1011.32 1011.75 1011.99 1011.75 1011.40 1011.19 1011.76 1011.46 1012.74 1014.15 1016.02 1017.47 1018.22 1018.58 1018.66 1018.47 1018.20 1018.06 1017.83 1017.52 1017.34 1017.09 1016.83 1016.50 1016.40 1016.31 1016.66 1017.11 1017.32 1017.35 1017.13 1016.30 1017.53 1017.93 1018.03 1018.53 1018.56 1018.14 1017.11 1016.80 1016.39 1016.52 1016.70 1016.11 1016.16 1016.10 1015.89 1015.69
1010.73 1010.94 1010.98 1011.25 1011.43 1010.98 1011.90 1012.21 1011.50 1013.17 1014.63 1015.80 1017.17 1018.13 1018.62 1018.71 1018.53 1018.33 1018.17 1017.96 1017.83 1017.67 1017.38 1017.16 1016.99 1016.88 1016.81 1017.03 1017.55 1017.82 1017.67 1017.05 1016.50 1015.71 1017.18 1018.52 1019.01 1018.82 1018.42 1017.91 1017.04 1016.78 1016.92 1016.61 1016.26 1015.91 1015.68 1015.54 1015.29
1010.24 1010.52 1010.59 1010.66 1011.18 1011.31 1012.68 1011.98 1012.15 1013.65 1014.96 1016.00 1017.03 1017.87 1018.30 1018.58 1018.53 1018.33 1018.27 1018.30 1018.22 1018.07 1017.71 1017.50 1017.52 1017.50 1017.72 1017.65 1017.79 1018.16 1017.75 1017.40 1017.31 1018.15 1018.35 1018.03 1019.00 1017.64 1018.23 1017.86 1017.18 1016.48 1016.22 1016.01 1015.91 1015.74 1015.59 1015.37 1014.94
1010.55 1010.92 1011.04 1011.25 1012.50 1012.29 1011.50 1012.26 1012.82 1013.88 1014.76 1015.74 1016.47 1017.25 1017.69 1017.98 1018.14 1018.19 1018.54 1018.55 1018.42 1018.37 1018.35 1018.11 1017.93 1018.02 1018.17 1018.14 1018.14 1017.98 1017.89 1018.13 1018.15 1018.51 1018.63 1018.34 1018.26 1017.97 1017.47 1017.33 1017.39 1016.60 1016.44 1016.10 1016.07 1016.05 1015.83 1015.39 1015.05
1010.29 1010.88 1011.51 1011.78 1011.66 1011.65 1011.46 1011.80 1011.47 1013.08 1013.56 1014.64 1015.48 1016.20 1017.00 1017.58 1017.87 1018.11 1018.40 1018.42 1018.43 1018.49 1018.52 1018.51 1018.42 1018.24 1018.24 1018.20 1018.14 1018.01 1018.12 1018.42 1018.55 1018.51 1018.84 1019.07 1018.78 1018.16 1017.54 1017.27 1017.15 1016.93 1016.63 1016.69 1016.34 1016.06 1015.61 1015.08 1014.94
1010.89 1010.91 1011.51 1011.60 1011.56 1011.04 1010.79 1010.42 1010.81 1011.30 1012.13 1013.16 1014.24 1015.12 1016.10 1016.80 1017.27 1017.72 1018.11 1018.30 1018.41 1018.46 1018.47 1018.58 1018.52 1018.34 1018.27 1018.58 1018.78 1018.77 1018.80 1018.90 1018.83 1018.72 1018.89 1019.18 1018.97 1018.38 1018.02 1017.97 1017.31 1016.92 1016.55 1016.54 1016.32 1015.85 1015.56 1015.15 1014.79
1010.39 1010.29 1010.59 1010.77 1011.22 1011.60 1011.31 1010.17 1010.93 1011.45 1011.94 1012.74 1013.54 1014.56 1015.51 1016.24 1016.80 1017.35 1017.79 1017.99 1018.10 1018.19 1018.42 1018.56 1018.68 1018.65 1018.57 1018.89 1019.07 1019.30 1019.60 1019.65 1019.79 1019.60 1019.64 1019.76 1019.56 1019.04 1018.72 1018.52 1017.79 1017.18 1016.67 1016.45 1016.26 1015.82 1015.29 1015.29 1014.94
Wind_Speed
4 4 1 3 2 1 4 4 2 9 4 1 9 5 3 1 3 3 1 6 17 20 17 17 16 16 15 14 14 15 15 15 16 15 15 15 15 16 15 14 13 15 15 15 15 14 13 12 12
5 2 1 1 2 5 4 2 10 9 9 2 7 2 0 1 2 3 9 10 18 19 17 17 16 16 16 15 14 13 14 14 15 15 15 15 15 15 15 13 13 14 13 13 12 12 11 10 8
4 0 3 2 2 7 6 10 14 14 2 7 6 3 2 4 3 6 2 16 18 17 16 16 17 16 16 16 16 14 14 14 14 14 14 14 14 14 13 12 12 13 12 11 11 10 10 8 7
2 2 3 1 7 2 5 13 13 5 4 3 6 5 4 5 1 4 14 17 18 18 18 19 17 17 17 17 16 14 14 14 13 14 14 14 14 13 12 12 11 11 11 10 10 9 7 6 6
2 1 2 4 2 3 5 10 10 0 2 4 1 5 3 3 4 12 15 15 17 16 15 17 18 18 18 18 16 14 13 13 13 13 13 12 12 11 11 11 11 11 10 9 8 7 6 5 5
2 1 2 4 1 3 5 11 6 1 1 5 4 4 3 2 5 10 12 14 15 16 15 15 14 15 16 15 15 13 12 11 11 11 11 11 11 10 9 9 9 9 9 8 7 6 5 4 4
1 1 3 3 0 2 5 13 10 3 3 3 6 4 3 5 7 9 10 12 13 13 13 12 14 13 12 12 12 12 12 12 11 10 10 9 10 8 8 7 7 8 8 7 6 6 5 4 3
3 1 5 2 1 3 7 12 3 2 3 5 3 5 4 9 12 11 11 12 12 13 13 12 11 12 12 12 14 14 13 12 12 12 12 10 9 9 8 7 8 8 7 6 5 5 4 5 3
2 2 3 4 2 4 6 9 2 4 4 3 2 1 3 15 15 13 11 12 11 11 12 12 12 12 11 11 11 12 13 13 11 11 10 9 8 9 9 5 3 5 4 4 4 5 5 4 5
1 0 3 2 2 6 8 4 9 3 3 1 3 3 9 15 15 16 15 15 15 15 15 12 13 13 12 10 11 11 10 9 9 9 10 8 8 7 6 5 6 6 4 4 4 5 6 8 4
2 1 1 2 6 4 5 5 3 3 3 5 4 6 11 14 15 15 16 17 17 14 11 14 13 13 13 11 8 6 6 6 7 10 9 8 7 6 6 4 5 5 5 5 5 5 5 5 5
2 2 3 3 1 2 5 6 3 4 3 4 6 8 14 16 16 18 17 15 13 13 15 15 15 12 12 8 7 8 7 7 6 8 10 7 6 6 5 4 4 4 4 4 5 3 4 6 6
2 2 4 7 9 5 2 5 3 5 11 8 2 10 14 15 16 13 12 12 12 16 16 14 14 12 12 11 8 9 9 9 9 9 10 8 8 6 6 5 5 5 4 4 5 4 4 5 7
2 3 6 5 5 2 5 2 2 9 14 5 4 9 11 16 18 13 14 15 15 15 14 14 14 13 12 11 11 9 8 10 9 8 9 11 8 7 6 5 5 6 5 5 5 4 5 5 7
1 4 3 3 4 4 2 5 6 14 11 8 7 10 11 13 13 20 18 15 11 7 8 11 12 12 13 12 11 9 9 9 9 8 9 10 9 8 7 6 6 6 5 6 5 5 5 6 7
1 1 3 3 5 2 4 7 8 14 11 9 10 11 13 15 18 15 8 5 2 4 3 6 7 10 12 11 8 7 7 7 6 6 5 9 9 8 6 6 5 5 4 6 5 5 6 7 7
4 4 2 2 2 7 4 1 4 11 10 10 11 11 8 11 9 7 5 1 6 7 5 4 1 6 8 8 8 7 8 6 5 5 5 7 10 10 8 6 6 7 6 6 5 6 6 6 7
3 2 1 3 1 6 2 1 5 9 9 10 12 14 14 10 10 9 8 5 7 7 7 6 4 4 1 4 4 4 5 6 5 6 6 8 7 9 8 6 7 7 7 7 6 9 8 8 7
5 3 4 4 5 4 2 1 7 7 10 12 14 14 14 13 12 12 12 11 10 11 10 8 6 3 3 3 2 4 6 5 5 6 8 9 7 8 8 7 9 9 9 9 10 10 11 8 8
5 3 4 7 2 4 3 3 4 9 9 11 11 11 13 12 13 14 14 14 13 12 11 10 10 10 7 4 1 2 3 2 2 3 5 7 8 9 10 10 10 11 8 10 11 12 8 6 5
5 5 4 5 3 3 3 4 5 3 6 8 11 9 10 11 12 13 15 15 13 14 13 12 11 12 11 12 8 7 5 5 6 7 7 9 11 8 9 11 9 8 8 9 11 10 9 9 4
5 11 6 4 3 6 2 6 5 4 1 7 9 9 9 10 9 11 13 15 15 14 13 9 9 11 9 7 11 17 9 4 3 5 5 6 10 11 9 7 8 8 5 7 5 5 5 5 7
4 8 8 5 7 4 6 6 3 4 7 2 6 7 7 7 8 10 12 14 14 13 13 15 16 17 17 15 14 9 7 7 4 5 8 9 9 8 8 7 8 5 1 5 2 7 6 3 5
4 4 3 2 4 9 10 8 5 5 4 5 3 3 4 5 8 11 12 13 13 12 13 13 16 15 15 13 11 11 11 8 9 8 8 7 7 6 8 1 3 2 2 5 5 7 8 6 6
5 4 4 5 6 6 4 6 6 5 4 4 7 4 4 5 8 11 13 13 12 12 12 12 13 13 14 14 12 11 11 10 9 11 7 4 4 3 6 7 4 3 2 3 3 4 5 5 5
8 8 6 5 5 3 3 7 2 3 5 5 6 7 7 7 8 11 10 9 9 9 9 11 11 11 10 11 12 9 9 6 7 4 2 3 3 1 6 7 6 6 7 6 6 3 4 4 5
7 8 1 4 2 3 5 2 6 6 9 8 9 8 9 10 11 11 8 9 8 7 7 8 10 10 9 9 9 10 9 9 6 5 5 4 4 5 5 5 8 7 6 6 5 4 5 3 4
5 10 5 3 5 7 6 4 5 11 16 14 13 12 11 12 12 10 9 6 4 3 4 7 7 8 8 8 7 7 7 5 5 5 5 6 6 8 9 8 7 7 6 6 5 4 5 5 3
6 6 2 1 3 7 10 5 7 15 16 19 17 15 14 15 14 12 10 5 1 2 2 2 3 6 6 7 7 7 6 4 3 3 3 5 8 8 10 11 11 9 8 7 6 7 6 7 6
0 7 12 9 10 3 4 8 3 6 8 15 15 14 14 16 14 12 10 7 6 5 5 3 1 1 4 5 5 5 5 6 6 7 7 8 7 7 8 11 11 12 11 9 8 8 7 9 8
Wind_Direction
151 168 265 238 228 121 70 29 318 338 318 196 145 192 219 141 202 299 51 163 147 146 151 158 155 154 147 140 138 134 133 133 132 132 129 125 117 112 109 109 112 112 111 109 108 107 106 105 104
133 130 214 312 45 62 31 335 326 329 310 198 162 140 35 251 44 71 134 168 155 147 153 157 156 154 150 145 138 137 136 137 135 134 131 127 120 116 114 113 115 115 114 113 111 108 105 102 100
151 296 282 49 82 54 350 348 331 330 172 162 132 39 16 355 63 154 118 157 151 153 154 155 157 155 154 152 146 146 143 138 135 132 131 128 123 120 117 115 120 121 121 119 114 110 106 104 101
179 169 109 27 86 112 310 335 347 343 148 163 131 115 98 29 26 167 149 157 157 158 161 154 160 159 158 155 152 150 146 139 139 137 138 135 133 131 128 127 128 125 124 121 118 115 112 106 96
61 207 95 99 85 286 277 319 338 269 96 101 157 116 72 51 60 136 152 162 164 163 167 164 163 162 161 158 155 152 150 143 143 143 143 142 138 142 136 137 135 133 131 130 129 127 122 110 96
126 295 147 123 133 279 299 342 346 124 123 127 119 123 109 115 129 150 161 170 173 167 169 165 169 163 160 160 155 153 148 146 146 146 147 150 150 151 148 150 148 144 144 146 147 145 139 127 107
127 161 108 133 101 18 10 340 29 15 182 138 127 136 94 175 148 160 170 172 177 176 174 171 173 169 159 156 153 152 152 152 151 152 155 157 162 165 164 170 174 167 168 168 170 170 167 163 155
100 106 142 159 119 53 348 335 278 316 80 125 191 180 160 167 157 160 174 177 178 178 181 178 179 179 174 167 164 164 166 160 160 161 164 166 168 180 190 195 194 195 189 189 203 205 204 190 199
171 153 150 133 142 350 336 345 339 309 236 182 142 166 35 142 154 160 172 182 185 188 186 185 181 178 182 178 175 176 172 169 165 170 171 170 190 186 182 183 194 224 206 205 241 242 251 261 220
67 181 150 96 183 319 315 302 320 320 336 186 181 89 135 158 171 170 183 190 193 190 188 193 191 187 185 185 183 189 181 184 183 186 184 193 191 196 209 210 226 249 254 262 271 269 270 262 273
133 63 158 198 244 258 296 294 270 284 270 261 265 188 175 180 186 190 197 198 197 192 194 200 196 197 195 194 188 188 190 187 188 190 193 193 190 198 204 208 212 223 207 242 222 232 254 281 292
156 187 221 290 254 256 280 308 263 242 266 4 295 190 176 188 199 198 202 201 195 198 204 201 199 201 202 201 196 187 192 195 198 200 195 191 196 197 207 213 214 226 229 248 254 266 287 287 282
177 184 206 273 293 274 257 239 286 291 312 326 237 175 189 198 208 211 212 213 202 206 205 203 201 205 204 205 197 198 198 197 200 200 198 200 203 200 205 208 226 234 232 244 254 257 268 276 273
189 265 284 305 310 280 312 22 238 7 343 329 239 229 211 212 209 206 215 212 208 212 205 200 206 206 210 216 214 209 205 207 206 207 207 205 206 198 203 205 226 243 241 247 264 285 292 284 291
109 289 325 51 350 40 309 98 40 348 340 7 322 266 247 233 232 223 218 219 224 230 227 216 211 209 219 223 223 221 218 210 215 217 212 214 215 210 207 209 224 244 252 270 281 283 270 267 267
98 95 164 29 329 41 281 125 30 11 22 20 339 312 253 237 234 244 275 331 288 249 291 243 235 228 232 233 238 240 245 241 241 239 227 222 223 228 218 223 234 246 252 254 255 262 258 258 258
36 113 29 332 42 336 348 78 33 24 20 14 6 356 296 258 267 290 301 288 94 77 72 80 336 262 262 254 260 253 266 249 261 266 247 233 228 223 223 222 228 236 238 243 254 258 246 246 242
136 151 189 267 116 305 282 116 26 28 26 31 23 17 14 360 9 8 35 89 91 78 78 85 98 108 158 242 234 260 259 257 243 246 251 250 248 240 225 233 236 234 246 243 236 249 236 247 253
140 167 264 260 244 269 271 198 36 28 35 28 29 24 21 20 24 43 60 61 69 60 70 73 80 87 144 171 232 242 255 253 244 244 241 242 245 244 231 227 226 214 224 231 227 238 238 239 242
167 191 250 286 199 245 306 182 81 39 38 37 28 27 25 26 31 45 55 62 67 62 62 66 70 75 80 110 95 299 278 272 312 340 343 304 270 238 226 226 229 220 220 216 225 221 236 238 209
195 220 223 275 321 208 253 198 196 115 67 54 44 35 31 31 45 54 61 66 70 70 73 75 75 76 81 89 81 69 54 51 33 36 24 0 354 314 244 234 228 224 225 222 220 226 233 246 192
227 210 231 241 262 275 296 279 208 175 78 46 41 37 29 39 51 65 73 73 74 75 73 76 79 78 77 97 103 96 94 76 27 39 25 11 358 328 337 264 226 198 202 264 322 322 281 326 297
226 155 192 225 230 229 204 250 216 177 186 62 42 34 37 47 66 74 86 90 85 82 79 79 73 64 61 57 69 81 109 123 109 68 28 1 17 308 332 294 276 347 211 249 259 279 315 316 295
138 171 122 126 186 241 239 235 204 201 161 150 107 60 52 73 94 99 102 106 102 102 98 94 88 79 76 79 86 99 100 89 109 87 53 31 341 329 328 13 319 326 295 251 277 272 278 293 277
187 195 246 217 204 256 152 209 277 171 169 172 160 160 139 132 132 125 123 115 112 104 96 95 94 103 112 110 113 117 109 104 89 68 128 61 267 314 332 342 19 74 327 298 276 276 276 267 269
193 208 226 254 225 238 173 227 181 176 149 165 169 174 168 162 159 148 131 113 104 102 99 101 97 98 94 99 95 76 73 74 69 84 139 120 282 355 329 342 354 17 18 8 2 339 302 272 256
161 208 309 216 83 253 242 211 237 192 198 186 189 185 183 176 173 160 138 125 109 106 101 98 91 78 76 74 77 76 61 48 64 48 6 356 327 323 338 338 339 359 3 5 3 8 3 331 290
232 142 170 184 236 237 204 238 238 209 219 204 204 200 190 185 182 174 163 148 111 88 103 108 103 101 99 103 109 100 97 86 57 29 4 337 319 326 327 331 333 336 342 342 351 349 9 11 1
156 192 87 178 212 258 265 224 213 210 210 202 204 201 191 190 190 184 184 187 271 275 192 132 138 134 102 84 74 65 58 54 62 92 31 348 331 339 329 323 326 325 329 332 337 348 351 353 357
220 248 205 219 211 237 290 261 167 245 214 197 198 197 193 197 196 194 199 229 271 206 165 151 175 264 105 98 69 41 50 49 35 31 21 356 349 341 338 332 332 327 325 326 326 334 346 341 342